Location: Kawakawa
(35.3830°S, 174.0670°E)
Time: 21:12:54
(UTC+13:00)

Courier 1B Rocket - All Passes

Search period start: 12 December 2019 00:00
Search period end: 22 December 2019 00:00
Orbit: 920 x 1202 km, 28.2° (Epoch: 11 December)

Date Brightness Start Highest point End Pass type
(mag) Time Alt. Az. Time Alt. Az. Time Alt. Az.
12 Dec - 00:53:18 10° WNW 00:59:00 22° NNW 01:04:43 10° NNE visible
12 Dec - 18:12:38 10° NW 18:18:22 29° NNE 18:24:28 10° ENE daylight
12 Dec - 20:04:38 10° WNW 20:11:24 47° N 20:18:37 10° ENE daylight
12 Dec - 21:57:43 10° WNW 22:04:44 46° N 22:12:06 10° ENE visible
12 Dec - 23:51:36 10° WNW 23:57:57 29° NNW 00:04:25 10° NE visible
13 Dec - 01:49:40 10° NW 01:50:50 10° NNW 01:51:59 10° NNW night (unlit)
13 Dec - 17:12:36 10° NNW 17:17:31 22° NNE 17:22:40 10° ENE daylight
13 Dec - 19:03:56 10° WNW 19:10:21 42° NNE 19:17:14 10° E daylight
13 Dec - 20:56:42 10° WNW 21:03:36 49° N 21:10:56 10° ENE visible
13 Dec - 22:50:13 10° W 22:56:53 35° NNW 23:03:47 10° NE visible
14 Dec - 00:45:34 10° WNW 00:49:52 16° NNW 00:54:13 10° N visible
14 Dec - 16:13:11 10° N 16:16:44 15° NNE 16:20:25 10° ENE daylight
14 Dec - 18:03:23 10° NW 18:09:23 35° NNE 18:15:48 10° E daylight
14 Dec - 19:55:49 10° WNW 20:02:30 49° N 20:09:40 10° ENE daylight
14 Dec - 21:49:02 10° W 21:55:47 41° NNW 22:02:54 10° NE visible
14 Dec - 23:43:25 10° WNW 23:48:53 22° NNW 23:54:29 10° NNE visible
15 Dec - 17:03:05 10° NW 17:08:31 28° NNE 17:14:16 10° ENE daylight
15 Dec - 18:55:01 10° WNW 19:01:28 46° N 19:08:22 10° ENE daylight
15 Dec - 20:48:00 10° WNW 20:54:42 45° N 21:01:50 10° ENE visible
15 Dec - 22:41:48 10° WNW 22:47:52 27° NNW 22:54:10 10° NNE visible
16 Dec - 16:03:05 10° NNW 16:07:43 21° NNE 16:12:33 10° ENE daylight
16 Dec - 17:54:22 10° WNW 18:00:29 41° NNE 18:07:03 10° E daylight
16 Dec - 19:47:05 10° WNW 19:53:38 48° N 20:00:40 10° ENE daylight
16 Dec - 21:40:30 10° WNW 21:46:49 33° NNW 21:53:30 10° NE visible
16 Dec - 23:35:51 10° WNW 23:39:48 15° NNW 23:43:49 10° N visible
17 Dec - 15:03:39 10° N 15:06:59 15° NNE 15:10:23 10° ENE daylight
17 Dec - 16:53:52 10° NW 16:59:36 34° NNE 17:05:40 10° ENE daylight
17 Dec - 18:46:15 10° WNW 18:52:36 47° N 18:59:26 10° ENE daylight
17 Dec - 20:39:23 10° WNW 20:45:47 39° NNW 20:52:36 10° NE daylight
17 Dec - 22:33:43 10° WNW 22:38:49 20° NNW 22:44:07 10° NNE visible
18 Dec - 15:53:32 10° NW 15:58:46 27° NNE 16:04:13 10° ENE daylight
18 Dec - 17:45:30 10° WNW 17:51:38 45° N 17:58:12 10° ENE daylight
18 Dec - 19:38:25 10° WNW 19:44:46 43° N 19:51:35 10° ENE daylight
18 Dec - 21:32:09 10° WNW 21:37:51 26° NNW 21:43:50 10° NNE visible
19 Dec - 14:53:31 10° NNW 14:58:00 21° NNE 15:02:37 10° ENE daylight
19 Dec - 16:44:50 10° WNW 16:50:44 40° N 16:56:57 10° ENE daylight
19 Dec - 18:37:32 10° WNW 18:43:47 46° N 18:50:28 10° ENE daylight
19 Dec - 20:30:55 10° WNW 20:36:52 32° NNW 20:43:12 10° NE daylight
19 Dec - 22:26:22 10° WNW 22:29:47 14° NNW 22:33:17 10° N visible
20 Dec - 13:54:01 10° N 13:57:16 15° NNE 14:00:34 10° ENE daylight
20 Dec - 15:44:18 10° NW 15:49:53 34° NNE 15:55:41 10° ENE daylight
20 Dec - 17:36:44 10° WNW 17:42:50 46° N 17:49:18 10° ENE daylight
20 Dec - 19:29:51 10° WNW 19:35:55 37° NNW 19:42:21 10° NE daylight
20 Dec - 21:24:11 10° WNW 21:28:51 19° NNW 21:33:43 10° NNE visible
21 Dec - 14:43:56 10° NW 14:49:05 27° NNE 14:54:20 10° ENE daylight
21 Dec - 16:35:58 10° WNW 16:41:55 44° N 16:48:10 10° ENE daylight
21 Dec - 18:28:54 10° WNW 18:34:58 42° N 18:41:24 10° ENE daylight
21 Dec - 20:22:39 10° WNW 20:27:56 24° NNW 20:33:30 10° NNE daylight
